Litchfield, MN

9:13 AM CST on December 07, 2016 (GMT -0600)
Litchfield Municipal

Weather History for KLJF - October, 2012

Change the Weather History Date:

Friday, October 5, 2012

  Actual Average Record
Temperature  
Mean Temperature 36 °F -  
Max Temperature 42 °F 66 °F 88 °F (1963)
Min Temperature 30 °F 41 °F 21 °F (1952)
Degree Days  
Heating Degree Days 29    
Moisture  
Dew Point 26 °F    
Average Humidity 64    
Maximum Humidity 86    
Minimum Humidity 49    
Precipitation  
Precipitation 0.00 in - - ()
Sea Level Pressure  
Sea Level Pressure 30.16 in    
Wind  
Wind Speed 16 mph (WNW)    
Max Wind Speed 23 mph    
Max Gust Speed 32 mph    
Visibility 10 miles    
Events      
Averages and records for this station are not official NWS values.
T = Trace of Precipitation, MM = Missing Value Source: NWS Daily Summary

Daily Weather History Graph

Daily Weather History Graph

Search for Another Location

Airport or City:

Trip Planner

Search our weather history database for the weather conditions in past years. The results will help you decide how hot, cold, wet, or windy it might be!

Date:

Astronomy

Oct. 05, 2012 Rise Set
Actual Time 7:21 AM CDT 6:50 PM CDT
Civil Twilight 6:52 AM CDT 7:19 PM CDT
Nautical Twilight 6:18 AM CDT 7:53 PM CDT
Astronomical Twilight 5:43 AM CDT 8:27 PM CDT
Moon 10:01 PM CDT (10/5) 12:42 PM CDT (10/5)
Length of Visible Light 12h 27m
Length of Day
11h 28m
Waning Gibbous, 74% of the Moon is Illuminated
Oct 5
Waning Gibbous
Oct 8
Last Quarter
Oct 15
New
Oct 21
First Quarter
Oct 29
Full

Hourly Weather History & Observations

Time (CDT) Temp. Windchill Dew Point Humidity Pressure Visibility Wind Dir Wind Speed Gust Speed Precip Events Conditions
12:13 AM 41.0 °F 33.1 °F 30.2 °F 65% 30.18 in 10.0 mi WNW 15.0 mph 26.5 mph N/A   Overcast
12:33 AM 41.0 °F 32.5 °F 26.6 °F 57% 30.17 in 10.0 mi WNW 17.3 mph 29.9 mph N/A   Overcast
12:53 AM 41.0 °F 32.2 °F 28.4 °F 61% 30.17 in 10.0 mi WNW 18.4 mph 24.2 mph N/A   Overcast
1:14 AM 41.0 °F 33.9 °F 30.2 °F 65% 30.17 in 10.0 mi West 12.7 mph 19.6 mph N/A   Overcast
1:33 AM 41.0 °F 33.1 °F 30.2 °F 65% 30.17 in 10.0 mi West 15.0 mph 20.7 mph N/A   Overcast
1:53 AM 41.0 °F 31.6 °F 28.4 °F 61% 30.16 in 10.0 mi WNW 20.7 mph 26.5 mph N/A   Overcast
2:14 AM 39.2 °F 30.8 °F 26.6 °F 61% 30.17 in 10.0 mi WNW 15.0 mph 32.2 mph N/A   Overcast
2:33 AM 39.2 °F 30.8 °F 26.6 °F 61% 30.17 in 10.0 mi WNW 15.0 mph 26.5 mph N/A   Overcast
2:53 AM 39.2 °F 30.5 °F 26.6 °F 61% 30.16 in 10.0 mi WNW 16.1 mph 26.5 mph N/A   Mostly Cloudy
3:14 AM 37.4 °F 28.5 °F 26.6 °F 65% 30.16 in 10.0 mi WNW 15.0 mph 24.2 mph N/A   Scattered Clouds
3:33 AM 37.4 °F 29.3 °F 26.6 °F 65% 30.16 in 10.0 mi West 12.7 mph 18.4 mph N/A   Scattered Clouds
3:53 AM 35.6 °F 28.6 °F 26.6 °F 70% 30.16 in 10.0 mi West 9.2 mph 18.4 mph N/A   Clear
4:14 AM 35.6 °F 27.5 °F 26.6 °F 70% 30.16 in 10.0 mi West 11.5 mph 18.4 mph N/A   Clear
4:33 AM 33.8 °F 25.3 °F 26.6 °F 75% 30.16 in 10.0 mi West 11.5 mph 19.6 mph N/A   Clear
4:53 AM 33.8 °F 25.8 °F 26.6 °F 75% 30.16 in 10.0 mi West 10.4 mph 17.3 mph N/A   Clear
5:13 AM 33.8 °F 25.3 °F 26.6 °F 75% 30.16 in 10.0 mi West 11.5 mph 17.3 mph N/A   Clear
5:33 AM 33.8 °F 24.8 °F 26.6 °F 75% 30.16 in 10.0 mi West 12.7 mph 18.4 mph N/A   Clear
5:53 AM 32.0 °F 23.0 °F 26.6 °F 80% 30.16 in 10.0 mi West 11.5 mph 18.4 mph N/A   Clear
6:13 AM 32.0 °F 22.5 °F 26.6 °F 80% 30.15 in 10.0 mi West 12.7 mph 19.6 mph N/A   Clear
6:33 AM 32.0 °F 22.5 °F 26.6 °F 80% 30.15 in 10.0 mi West 12.7 mph 19.6 mph N/A   Clear
6:53 AM 30.2 °F 20.2 °F 26.6 °F 86% 30.15 in 10.0 mi WNW 12.7 mph 19.6 mph N/A   Clear
7:13 AM 30.2 °F 20.8 °F 26.6 °F 86% 30.15 in 10.0 mi West 11.5 mph 18.4 mph N/A   Clear
7:33 AM 30.2 °F 20.8 °F 26.6 °F 86% 30.16 in 10.0 mi West 11.5 mph - N/A   Clear
7:53 AM 30.2 °F 20.2 °F 26.6 °F 86% 30.16 in 10.0 mi West 12.7 mph 20.7 mph N/A   Clear
8:13 AM 32.0 °F 22.1 °F 26.6 °F 80% 30.16 in 10.0 mi West 13.8 mph 21.9 mph N/A   Clear
8:33 AM 33.8 °F 24.3 °F 26.6 °F 75% 30.16 in 10.0 mi West 13.8 mph - N/A   Clear
8:53 AM 33.8 °F 23.9 °F 26.6 °F 75% 30.17 in 10.0 mi West 15.0 mph 21.9 mph N/A   Scattered Clouds
9:14 AM 35.6 °F 26.2 °F 26.6 °F 70% 30.17 in 10.0 mi West 15.0 mph 21.9 mph N/A   Scattered Clouds
9:33 AM 35.6 °F 24.8 °F 26.6 °F 70% 30.17 in 10.0 mi WNW 19.6 mph 25.3 mph N/A   Scattered Clouds
9:53 AM 37.4 °F 27.5 °F 26.6 °F 65% 30.17 in 10.0 mi WNW 18.4 mph 25.3 mph N/A   Scattered Clouds
10:14 AM 37.4 °F 27.2 °F 26.6 °F 65% 30.17 in 10.0 mi WNW 19.6 mph 25.3 mph N/A   Clear
10:33 AM 39.2 °F 30.5 °F 26.6 °F 61% 30.17 in 10.0 mi WNW 16.1 mph 25.3 mph N/A   Clear
10:53 AM 39.2 °F 29.6 °F 26.6 °F 61% 30.17 in 10.0 mi WNW 19.6 mph 26.5 mph N/A   Scattered Clouds
11:14 AM 41.0 °F 32.8 °F 26.6 °F 57% 30.16 in 10.0 mi WNW 16.1 mph 24.2 mph N/A   Scattered Clouds
11:33 AM 39.2 °F 29.6 °F 24.8 °F 56% 30.16 in 10.0 mi NW 19.6 mph 27.6 mph N/A   Mostly Cloudy
11:53 AM 41.0 °F 33.5 °F 26.6 °F 57% 30.16 in 10.0 mi WNW 13.8 mph 26.5 mph N/A   Scattered Clouds
12:14 PM 42.8 °F 34.5 °F 26.6 °F 53% 30.16 in 10.0 mi NW 18.4 mph 26.5 mph N/A   Mostly Cloudy
12:33 PM 41.0 °F 31.6 °F 24.8 °F 53% 30.15 in 10.0 mi WNW 20.7 mph 28.8 mph N/A   Mostly Cloudy
12:53 PM 42.8 °F 34.5 °F 24.8 °F 49% 30.16 in 10.0 mi WNW 18.4 mph 26.5 mph N/A   Scattered Clouds
1:33 PM 42.8 °F 33.5 °F 24.8 °F 49% 30.15 in 10.0 mi WNW 23.0 mph 28.8 mph N/A   Mostly Cloudy
1:53 PM 42.8 °F 34.5 °F 24.8 °F 49% 30.15 in 10.0 mi NW 18.4 mph 27.6 mph N/A   Overcast
2:13 PM 42.8 °F 33.5 °F 24.8 °F 49% 30.15 in 10.0 mi NW 23.0 mph 29.9 mph N/A   Overcast
2:33 PM 42.8 °F 34.5 °F 24.8 °F 49% 30.15 in 10.0 mi WNW 18.4 mph 25.3 mph N/A   Overcast
2:53 PM 42.8 °F 34.0 °F 24.8 °F 49% 30.15 in 10.0 mi WNW 20.7 mph 32.2 mph N/A   Overcast
3:13 PM 42.8 °F 34.8 °F 24.8 °F 49% 30.16 in 10.0 mi WNW 17.3 mph 31.1 mph N/A   Overcast
3:33 PM 42.8 °F 34.5 °F 24.8 °F 49% 30.16 in 10.0 mi NW 18.4 mph 27.6 mph N/A   Overcast
3:53 PM 41.0 °F 32.5 °F 24.8 °F 53% 30.16 in 10.0 mi WNW 17.3 mph 28.8 mph N/A   Overcast
4:13 PM 39.2 °F 29.0 °F 24.8 °F 56% 30.16 in 10.0 mi WNW 21.9 mph 31.1 mph N/A   Overcast
4:33 PM 39.2 °F 30.2 °F 24.8 °F 56% 30.16 in 10.0 mi WNW 17.3 mph 29.9 mph N/A   Overcast
4:53 PM 39.2 °F 29.6 °F 24.8 °F 56% 30.16 in 10.0 mi WNW 19.6 mph 28.8 mph N/A   Overcast
5:13 PM 39.2 °F 28.7 °F 24.8 °F 56% 30.16 in 10.0 mi WNW 23.0 mph 29.9 mph N/A   Overcast
5:33 PM 39.2 °F 30.2 °F 24.8 °F 56% 30.16 in 10.0 mi WNW 17.3 mph 32.2 mph N/A   Overcast
5:53 PM 39.2 °F 29.6 °F 24.8 °F 56% 30.16 in 10.0 mi WNW 19.6 mph 28.8 mph N/A   Overcast
6:13 PM 39.2 °F 30.5 °F 24.8 °F 56% 30.16 in 10.0 mi WNW 16.1 mph 26.5 mph N/A   Overcast
6:33 PM 39.2 °F 30.5 °F 24.8 °F 56% 30.16 in 10.0 mi WNW 16.1 mph 23.0 mph N/A   Overcast
6:53 PM 39.2 °F 29.8 °F 24.8 °F 56% 30.16 in 10.0 mi WNW 18.4 mph 29.9 mph N/A   Overcast
7:13 PM 39.2 °F 29.0 °F 24.8 °F 56% 30.17 in 10.0 mi WNW 21.9 mph 27.6 mph N/A   Overcast
7:33 PM 39.2 °F 29.8 °F 26.6 °F 61% 30.17 in 10.0 mi WNW 18.4 mph 24.2 mph N/A   Overcast
7:53 PM 39.2 °F 29.8 °F 24.8 °F 56% 30.17 in 10.0 mi WNW 18.4 mph 27.6 mph N/A   Overcast
8:13 PM 39.2 °F 30.5 °F 26.6 °F 61% 30.18 in 10.0 mi NW 16.1 mph 26.5 mph N/A   Overcast
8:33 PM 39.2 °F 29.8 °F 26.6 °F 61% 30.18 in 10.0 mi WNW 18.4 mph 26.5 mph N/A   Overcast
8:53 PM 37.4 °F 28.2 °F 26.6 °F 65% 30.18 in 10.0 mi WNW 16.1 mph 21.9 mph N/A   Overcast
9:13 PM 37.4 °F 27.8 °F 26.6 °F 65% 30.18 in 10.0 mi NW 17.3 mph 24.2 mph N/A   Mostly Cloudy
9:33 PM 37.4 °F 27.2 °F 26.6 °F 65% 30.19 in 10.0 mi NW 19.6 mph 26.5 mph N/A   Scattered Clouds
9:53 PM 35.6 °F 25.9 °F 26.6 °F 70% 30.19 in 10.0 mi NW 16.1 mph 21.9 mph N/A   Scattered Clouds
10:33 PM 35.6 °F 27.5 °F 26.6 °F 70% 30.19 in 10.0 mi NW 11.5 mph 20.7 mph N/A   Mostly Cloudy
10:53 PM 35.6 °F 26.2 °F 26.6 °F 70% 30.19 in 10.0 mi WNW 15.0 mph 20.7 mph N/A   Overcast
11:33 PM 35.6 °F 26.6 °F 26.6 °F 70% 30.19 in 10.0 mi WNW 13.8 mph 19.6 mph N/A   Overcast
11:53 PM 33.8 °F 25.3 °F 28.4 °F 81% 30.19 in 10.0 mi WNW 11.5 mph 20.7 mph N/A   Scattered Clouds